Regional Weather Roundup
Issued by NWS Upton, NY

Current Version | Previous Version | Graphics & Text | Print | Product List | Glossary Off
Versions: 1 2 3 4 5 6 7 8 9 10 11 12 13 14 15 16 17 18 19 20 21 22 23 24 25 26 27 28 29 30 31 32 33 34 35 36 37 38 39 40 41 42 43 44 45 46 47 48 49 50

000
ASUS41 KOKX 010818
RWROKX

REGIONAL WEATHER ROUNDUP
NATIONAL WEATHER SERVICE NEW YORK NY
400 AM EDT WED JUL 01 2015

NOTE: "FAIR" INDICATES FEW OR NO CLOUDS BELOW 12,000 FEET WITH NO
SIGNIFICANT WEATHER AND/OR OBSTRUCTIONS TO VISIBILITY.

NYZ071-072-176-178-NJZ106-104-010900-
NEW YORK CITY METRO AREA


CITY           SKY/WX    TMP DP  RH WIND       PRES   REMARKS
CENTRAL PARK   LGT RAIN  73  70  90 VRB3      29.79F FOG
LAGUARDIA APRT CLOUDY    73  69  87 S3        29.76F
KENNEDY INTL   CLOUDY    73  69  87 S10       29.77F
NEWARK/LIBERTY TSTM      73  72  94 SE3       29.76F FOG
BRNX BOT. GARD   N/A     72  70  94 E6        29.77F
TETERBORO      CLOUDY    74  69  85 SE3       29.74F
$$

NYZ177-179-078>081-010900-
LONG ISLAND NEW YORK

CITY           SKY/WX    TMP DP  RH WIND       PRES   REMARKS
FARMINGDALE    CLOUDY    73  69  87 S8        29.79F
ISLIP          CLOUDY    72  67  84 S8        29.78F
SHIRLEY        CLOUDY    72  67  84 SE8       29.81F
WESTHAMPTON    LGT RAIN  70  70 100 VRB3      29.83F FOG
MONTAUK POINT    N/A     71  67  87 SE7       29.86F
$$

NYZ052-065-067-010900-
HUDSON VALLEY

CITY           SKY/WX    TMP DP  RH WIND       PRES   REMARKS
WHITE PLAINS     N/A     71  69  93 SE5       29.78F FOG
NEWBURGH       MOCLDY    70  70 100 SE7       29.79F
MONTGOMERY     CLOUDY    69  67  93 N5        29.77F
POUGHKEEPSIE   CLOUDY    71  68  90 CALM      29.77F
ALBANY         CLOUDY    68  64  87 SW7       29.78S
$$

NJZ001-105-106-008-010-013-015-019>022-104-010900-
NEW JERSEY

CITY           SKY/WX    TMP DP  RH WIND       PRES   REMARKS
NEWARK/LIBERTY TSTM      73  72  94 SE3       29.76F FOG
TETERBORO      CLOUDY    74  69  85 SE3       29.74F
CALDWELL       HVY RAIN  72  70  93 NW7       29.76F FOG
MORRISTOWN     TSTM      73  70  88 SW16G24   29.79R
SOMERVILLE     LGT RAIN  70  65  84 VRB7G18   29.75F
SUSSEX         LGT RAIN  69  66  90 S3        29.78S
ANDOVER          N/A     70  68  93 SW5       29.80S
TRENTON        LGT RAIN  68  64  87 VRB5      29.79F
MILLVILLE      CLOUDY    71  66  84 W9        29.82S
ATLANTIC CITY  LGT RAIN  74  67  78 W17G28    29.80S
WRIGHTSTOWN    CLOUDY    70  66  88 NW13      29.78R
TOMS RIVER     CLOUDY    73  72  94 W17G24    29.81R THUNDER
BELMAR         CLOUDY    73  68  83 S7        29.78S
$$

PAZ047>061-062-071-010900-
EASTERN PENNSYLVANIA

CITY           SKY/WX    TMP DP  RH WIND       PRES   REMARKS
PHILADELPHIA   LGT RAIN  71  65  81 W7        29.80F
ALLENTOWN      RAIN      66  64  94 SW12      29.80S FOG
SCRANTON       LGT RAIN  67  62  84 W6        29.80S
$$

CTZ002-004>006-009-010-012-RIZ004-006-007-MAZ004-011-015-010900-
SOUTHERN NEW ENGLAND
 IN CT

CITY           SKY/WX    TMP DP  RH WIND       PRES   REMARKS
BRADLEY INTL   CLOUDY    69  65  86 CALM      29.82F
HARTFORD       CLOUDY    72  67  84 S8        29.82F
DANBURY        CLOUDY    70  66  87 SE7       29.81F FOG
WTRBRY/OXFORD  CLOUDY    70  64  83 SE10      29.83F
BRIDGEPORT     CLOUDY    72  69  90 E6        29.79F
MERIDEN        CLOUDY    72  67  84 S9        29.81F
NEW HAVEN      CLOUDY    71  68  90 SE6       29.81F
CHESTER        CLOUDY    68  66  94 SE6       29.84F
GROTON         CLOUDY    69  65  86 E14       29.84F
WILLIMANTIC    CLOUDY    68  64  87 CALM      29.86F

 IN RI

CITY           SKY/WX    TMP DP  RH WIND       PRES   REMARKS
PROVIDENCE     MOCLDY    67  63  87 SE3       29.89S
BLOCK ISLAND   CLOUDY    68  63  83 SE12      29.88S
WESTERLY       CLOUDY    69  65  86 SE10      29.87F

 IN MA

CITY           SKY/WX    TMP DP  RH WIND       PRES   REMARKS
BOSTON         MOCLDY    63  61  93 E6        29.90S
WORCESTER      CLOUDY    65  61  87 SE6       29.90F
WESTFIELD      CLOUDY    67  64  90 N3        29.83F
PROVINCETOWN   PTCLDY    64   9  11 SE10      29.91F
NANTUCKET      CLEAR     61  58  90 E9        29.91F
$$

ANZ330-335-338-340-345-350-353-355-010900-
COASTAL MARINE OBSERVATIONS


STATION/POSITION TIME  SKY/WX   TEMP    WIND        PRES    VSBY  WAVE
                                AIR SEA DIR/SP/G                  HT/PER
                 (UTC)          (F)     (DEG/KT/KT) (MB)    (MI)  (FT/S)
NY HARB ENTRANCE 0750            70 68  170/ 10/ 12 1007.5          4/ 5
4S FIRE IS       0703               67                N/A           4/ 4
20S FIRE ISLAND  0750            70 66  160/ 12/ 14 1008.4          3/ 7
GREAT SOUTH BAY  0700            71 74  190/ 16/ 19   N/A
23SW MTP         0750            69 65  150/ 12/ 14 1010.3          3/ 8
HUDSON CANYON    NOT AVBL
KINGS POINT      0700            72 66  200/ 10/ 14 1008.3
CENTRAL LI SOUND NOT AVBL
EASTERN LI SOUND 0700            66     110/ 10/ 12   N/A
ROBBINS REEF     0700            70     180/  4/  5 1007.5
$$


>>>>>>>>>>>>>>>>>>>>>>>>>>>> KEY <<<<<<<<<<<<<<<<<<<<<<<<<<<
>                                                          <
>     SKY/WX - SKY CONDITION/PRESENT WEATHER               <
>     TMP    - TEMPERATURE IN FAHRENHEIT                   <
>     DP     - DEWPOINT IN FAHRENHEIT                      <
>     RH     - RELATIVE HUMIDITY IN PERCENT                <
>     WIND   - DIRECTION AND SPEED IN MPH                  <
>     PRES   - MEAN SEA LEVEL PRESSURE IN INCHES OF HG     <
>     WCI    - WIND CHILL INDEX                            <
>     VSB    - VISIBILITY IN MILES                         <
>     HX     - HEAT INDEX                                  <
>     TC     - TEMPERATURE IN CELSIUS                      <
>     VRB    - VARIABLE WIND DIRECTION                     <
>                                                          <
>>>>>>>>>>>>>>>>>>>>>>>>>>>> KEY <<<<<<<<<<<<<<<<<<<<<<<<<<<




USA.gov is the U.S. government's official web portal to all federal, state and local government web resources and services.